sat.trackr.live / text

‹ back to catalog

STARLINK-34613

NORAD 65294 · 2025-184X

PAYLOAD ACTIVE UNKNOWN

§ Identity

Operator
Country
US
Launch date
2025-08-22
Launch site
AFWTR
Launch vehicle
Mass (kg)
RCS (m²)

Purposes: comms

External: N2YO · Heavens-Above · Gunter

§ Orbital elements

Epoch: 2026-05-25T03:39:56.589120Z

Period
95.64 min
Inclination
97.4474°
Eccentricity
0.0001121
Mean motion
15.05657659 rev/d
Perigee alt
548.7 km
Apogee alt
550.3 km
Semi-major
6,927.6 km
B*
4.2461e-4
RAAN
197.6228°
Arg perigee
175.3934°
Mean anomaly
184.7303°
Rev number
4,280

§ Raw data

STARLINK-346131 65294U 25184X   26145.15273830  .00006074  00000+0  42461-3 0  99992 65294  97.4474 197.6228 0001121 175.3934 184.7303 15.05657659 42804

JSON: /api/v1/satellites/65294 · /tle

For live sub-satellite position, see the globe view (requires WebGL).

§ Visibility from observer

Set your observer location to see the next 7 days of passes ≥ 10°. The values pass through the URL so the page stays shareable.

No JS? Fill the form by hand. The geolocation button needs JavaScript.